ONEWEB-0188 (48231 NORAD) Tracking and Keplerian Element Data

This shows tracking and keplerian element data for the satellite.

Feedback or suggestion? Click here.




ElementValue
Catalog48231
NameONEWEB-0188
Epoch Orbit186
Epoch Day136.91668981
Epoch Year2021
RAAN305.7595
Inclination87.3979
Eccentricity0.0007246
Argument of Perigee170.5193
Mean Anonmoly208.6855
Mean Motion15.18252387
Decay Rate-0.01413556
L11 48231U 21031X 21136.91668981 -.01413556 00000-0 -75205-1 0 9993
L22 48231 87.3979 305.7595 0007246 170.5193 208.6855 15.18252387 1863

Live tracking and technical data element details for ONEWEB-0188 (NORAD 48231). ONEWEB-0188 can be tracked NOW for your location showing map with azimuth and elevation plus other details from your city location.

Track the satellite on the map from your city or location and see movement details for azimuth, elevation, latitude, longitude, range, height, and movement on the map or in text.







IsCatalogInMostPopularTable: catalog: 48231, numindb: 6
Update: records affected: 1



GetName: 48231 ONEWEB-0188

Hit Count: updated at: Mon, 17 May 2021 15:50:08 GMT